Weather Roundup
Issued by NWS

Home | Current Version | Previous Version | Graphics & Text | Print | Product List | Glossary Off
Versions: 1 2 3 4 5 6 7 8 9 10 11 12 13 14 15 16 17 18 19 20 21 22 23 24 25 26 27 28 29 30 31 32 33 34 35 36 37 38 39 40 41 42 43 44 45 46 47 48 49 50

000
NZUS93 KARX 261810
HRRWXR

CURRENT HOURLY OBSERVATIONS ACROSS
MUCH OF THE UPPER MISSISSIPPI VALLEY
NATIONAL WEATHER SERVICE LA CROSSE WI
1200 PM CST SUN FEB 26 2017


...SOUTHEAST MINNESOTA...


CITY           SKY/WX    TMP DP  RH WIND       PRES   REMARKS
ROCHESTER      SUNNY     28  22  78 SW14      29.82R WCI  17
ROCHESTER/MAYO FAIR      31  21  66 SW13      29.82R WCI  22
WINONA         SUNNY     34  23  64 SW5       29.83F WCI  30
AUSTIN         SUNNY     30  21  69 W8        29.83S WCI  23
ALBERT LEA     SUNNY     28  19  69 W8        29.84R WCI  20
DODGE CENTER   NOT AVBL
PRESTON        SUNNY     32  21  65 SW15      29.82S WCI  22
OWATONNA       PTSUNNY   30  21  69 W12       29.83R WCI  21
FARIBAULT      PTSUNNY   32  25  74 SW7       29.82S WCI  26
$$

...ELSEWHERE IN MINNESOTA...


CITY           SKY/WX    TMP DP  RH WIND       PRES   REMARKS
MINNEAPOLIS    PTSUNNY   37  21  52 W17G25    29.79R WCI  27
INTNL FALLS    MOSUNNY   14  -1  51 NW12G20   29.76R WCI   0
DULUTH         FLURRIES  20  12  71 NW15      29.70R WCI   6
RED WING       MOSUNNY   30  19  64 W9        29.80F WCI  22
REDWOOD FALLS  MOSUNNY   34  19  54 W15       29.84R WCI  24
MANKATO          N/A     33  24  69 NW14      29.84R WCI  23
WORTHINGTON    SUNNY     33  25  72 W10       29.85R WCI  25
FAIRMONT       SUNNY     31  24  75 W12       29.86R WCI  22
$$

...SOUTHWEST WISCONSIN...


CITY           SKY/WX    TMP DP  RH WIND       PRES   REMARKS
LA CROSSE      SUNNY     38  24  57 SW14      29.83S WCI  30
PRAIRIE DU CHI SUNNY     37  25  63 SW10      29.88F WCI  30
BOSCOBEL       SUNNY     39  24  55 SW13      29.88S WCI  31
LONE ROCK      SUNNY     37  25  61 W12       29.88R WCI  29
PLATTEVILLE    MOSUNNY   37  30  74 SW20G26   29.90R WCI  27
FORT MC COY    SUNNY     38  23  55 W12       29.82F WCI  31
CAMP DOUGLAS   MOSUNNY   37  23  56 W13       29.80S WCI  29
MAUSTON-NEW LI CLEAR     38  23  56 SW9G18    29.81S WCI  31
VIROQUA        FAIR      36  24  63 SW12      29.82F WCI  27
WIS DELLS      SUNNY     36  22  57 W15G21    29.84R WCI  27
$$

...ELSEWHERE IN WISCONSIN...


CITY           SKY/WX    TMP DP  RH WIND       PRES   REMARKS
MILWAUKEE      MOSUNNY   40  22  48 SW21G33   29.87F WCI  30
MADISON        MOSUNNY   36  25  64 SW12      29.86R WCI  28
GREEN BAY      SUNNY     34  24  67 SW13      29.79F WCI  25
EAU CLAIRE     CLOUDY    30  21  69 SW12      29.78R WCI  20
BLACK RVR FLS  FAIR      38  20  49 SW10G16   29.81R WCI  31
MEDFORD        PTSUNNY   29  20  69 SW13      29.72S WCI  18
WAUSAU         PTSUNNY   31  20  63 W13       29.73S WCI  21
WIS RAPIDS     SUNNY     36  21  54 W15       29.78F WCI  27
MARSHFIELD     PTSUNNY   33  20  58 W14       29.75R WCI  23
RICE LAKE      CLOUDY    32  22  69 W14G21    29.76R WCI  22
$$

...NORTHEAST IOWA...


CITY           SKY/WX    TMP DP  RH WIND       PRES   REMARKS
WATERLOO       SUNNY     38  27  64 SW16      29.90R WCI  29
DUBUQUE        SUNNY     38  27  64 W17       29.90R WCI  28
DECORAH        SUNNY     34  23  64 SW8       29.85S WCI  27
MASON CITY     SUNNY     29  21  72 SW14      29.87S WCI  18
CHARLES CITY   SUNNY     32  25  74 SW12      29.87S WCI  23
OELWEIN        SUNNY     37  30  75 SW12      29.89S WCI  30
$$

...ELSEWHERE IN IOWA...


CITY           SKY/WX    TMP DP  RH WIND       PRES   REMARKS
DES MOINES     MOSUNNY   46  26  45 W26       29.92S
IOWA CITY      SUNNY     46  24  42 SW13      29.95F
FORT DODGE     SUNNY     30  19  64 SW10      29.91S WCI  21
MARSHALLTOWN   SUNNY     40  27  59 W20       29.91R WCI  30
CEDAR RAPIDS   SUNNY     43  28  55 SW15      29.91F
$$

...NORTHERN ILLINOIS...


CITY           SKY/WX    TMP DP  RH WIND       PRES   REMARKS
CHICAGO-OHARE  PTSUNNY   43  19  38 SW21G35   29.94F
CHICAGO-MIDWAY PTSUNNY   45  18  34 SW21G31   29.97F
MOLINE         SUNNY     46  23  40 SW20G29   29.96F
ROCKFORD       MOSUNNY   41  23  48 SW21G30   29.94S
PEORIA         PTSUNNY   44  17  33 SW16G28   30.03F
$$

NOTE: "FAIR" INDICATES FEW OR NO CLOUDS BELOW 12,000 FEET WITH NO
SIGNIFICANT WEATHER AND/OR OBSTRUCTIONS TO VISIBILITY. WIND
SPEEDS ARE IN MILES-PER-HOUR.




USA.gov is the U.S. government's official web portal to all federal, state and local government web resources and services.